Погода в Ынырге

Россия / Республика Алтай     51°49′29″N   86°47′22″E
темп.,
°C
ветер,
м/с
пор.,
м/с
влажн.,
%
обл.,
%
осадки,
мм/ч
давл.,
гПа
погр.,
м
8 мая, сб
сб801:00+9зюз1186100 3.4 101912
04:00+7ююз228852 0.0 102022
07:00+7ююз2284100 0.0 102146
10:00+14сз13517 0.0 10191249
13:00+16сз34415 0.0 10181799
16:00+17сз45394 0.0 10181867
19:00+14сз35511 0.0 1019676
22:00+8ююз22720 0.0 102131
9 мая, вс
вс901:00+7ююз32730 0.0 102035
04:00+6ююз32700 0.0 102031
07:00+8ююз23643 0.0 101951
10:00+16зсз13390 0.0 10161459
13:00+18сз35335 0.0 10142203
16:00+19ссз46355 0.0 10132274
19:00+16ссз3453100 0.0 1013832
22:00+9ссв1186100 0.1 101627
10 мая, пн
пн1001:00+8ссз128297 0.1 101680
04:00+4сз118544 0.0 101737
07:00+5св117713 0.0 1018148
10:00+9св236027 0.0 1017832
13:00+13св334285 0.0 10141387
16:00+15св333171 0.0 10121590
19:00+13св364085 0.0 1011703
22:00+5ссз116984 0.0 101311
11 мая, вт
вт1101:00+3ю117620 0.0 101211
04:00+3ююз017919 0.0 101210
07:00+5ссв117318 0.0 101297
10:00+10с215469 0.0 1012693
13:00+14ссз344559 0.0 10111582
16:00+13сз454599 0.0 10121600
19:00+12сз345251 0.0 10131461
22:00+7юз2271100 0.0 101537
12 мая, ср
ср1201:00+8юз2264100 0.0 101442
04:00+5ююз347949 0.0 101581
07:00+6зсз127652 0.2 1016146
10:00+5зсз2691100 1.3 1018643
13:00+6з148438 2.9 1019600
16:00+8зсз357584 1.3 1018931
19:00+6зсз2489100 2.6 1020547
22:00+5зюз1295100 0.8 102282